{"data":{"norad_id":63438,"epoch":"2026-09-20T10:01:17.022432Z","epoch_age_seconds":162850,"freshness":"FRESH","line1":"1 63438U 25069F   26263.41755813  .00011417  00000+0  34846-3 0  9990","line2":"2 63438  53.1593 308.3705 0001016  84.5710 275.5409 15.34405674 83340","mean_motion":15.34405674,"eccentricity":0.0001016,"inclination_deg":53.1593,"raan_deg":308.3705,"arg_perigee_deg":84.571,"mean_anomaly_deg":275.5409,"bstar":0.00034846,"rev_number":8334,"period_min":93.847411046526,"perigee_km":461.99134828034,"apogee_km":463.38140359033,"semimajor_km":6840.8233759353,"source":"CELESTRAK","updated_at":"2026-09-21T09:00:35.002158Z"}}